EN

Hourly Weather Altanka

Today, 18 January, Monday

Time Temperature Precipitation Wind Pressure Humidity
00:00 -14°C° 0 mm 1 mps 759 mmHg 89%
01:00 -15°C° 0 mm 1 mps 759 mmHg 88%
02:00 -15°C° 0 mm 1 mps 759 mmHg 89%
03:00 -14°C° 0 mm 1 mps 759 mmHg 89%
04:00 -14°C° 0 mm 1 mps 759 mmHg 90%
05:00 -14°C° 0 mm 1 mps 759 mmHg 90%
06:00 -14°C° 0 mm 1 mps 759 mmHg 90%
07:00 -15°C° 0 mm 1 mps 759 mmHg 89%
08:00 -14°C° 0 mm 1 mps 759 mmHg 87%
09:00 -13°C° 0 mm 1 mps 759 mmHg 86%
10:00 -13°C° 0 mm 1 mps 759 mmHg 84%
11:00 -12°C° 0 mm 1 mps 759 mmHg 82%
12:00 -11°C° 0 mm 1 mps 759 mmHg 80%
13:00 -10°C° 0 mm 1 mps 758 mmHg 79%
14:00 -10°C° 0 mm 1 mps 758 mmHg 81%
15:00 -11°C° 0 mm 1 mps 758 mmHg 84%
16:00 -11°C° 0 mm 1 mps 758 mmHg 87%
17:00 -11°C° 0 mm 1 mps 757 mmHg 87%
18:00 -11°C° 0 mm 1 mps 757 mmHg 88%
19:00 -13°C° 0 mm 2 mps 757 mmHg 89%
20:00 -13°C° 0 mm 2 mps 757 mmHg 89%
21:00 -13°C° 0 mm 2 mps 757 mmHg 89%
22:00 -12°C° 0 mm 2 mps 757 mmHg 89%
23:00 -12°C° 0 mm 2 mps 756 mmHg 90%

Tomorrow, 19 January, Tuesday

Time Temperature Precipitation Wind Pressure Humidity
00:00 -12°C° 0 mm 2 mps 756 mmHg 90%
01:00 -10°C° 0 mm 2 mps 756 mmHg 91%
02:00 -12°C° 0 mm 3 mps 755 mmHg 92%
03:00 -12°C° 0 mm 3 mps 755 mmHg 92%
04:00 -12°C° 0 mm 3 mps 754 mmHg 93%
05:00 -9°C° 0.2 mm 3 mps 754 mmHg 94%
06:00 -8°C° 0.2 mm 3 mps 753 mmHg 95%
07:00 -8°C° 0.2 mm 4 mps 753 mmHg 95%
08:00 -6°C° 0.3 mm 3 mps 753 mmHg 96%
09:00 -4°C° 0.3 mm 3 mps 752 mmHg 96%
10:00 -2°C° 0.3 mm 3 mps 752 mmHg 97%
11:00 -1°C° 0.3 mm 3 mps 752 mmHg 97%
12:00 -2°C° 0.3 mm 4 mps 751 mmHg 97%
13:00 -1°C° 0.3 mm 4 mps 751 mmHg 98%
14:00 -1°C° 0.1 mm 4 mps 750 mmHg 97%
15:00 -1°C° 0.1 mm 4 mps 750 mmHg 97%
16:00 0°C° 0.1 mm 3 mps 750 mmHg 97%
17:00 -2°C° 0 mm 4 mps 750 mmHg 97%
18:00 -2°C° 0 mm 4 mps 749 mmHg 97%
19:00 -2°C° 0 mm 4 mps 749 mmHg 96%
20:00 -2°C° 0 mm 4 mps 749 mmHg 96%
21:00 -2°C° 0 mm 4 mps 748 mmHg 95%
22:00 -2°C° 0 mm 4 mps 748 mmHg 94%
23:00 -2°C° 0.3 mm 4 mps 748 mmHg 95%

Day after tomorrow, 20 January, Wednesday

Time Temperature Precipitation Wind Pressure Humidity
00:00 -2°C° 0.3 mm 4 mps 747 mmHg 96%
01:00 -2°C° 0.3 mm 5 mps 747 mmHg 98%
02:00 -2°C° 0.6 mm 5 mps 747 mmHg 97%
03:00 -1°C° 0.6 mm 5 mps 746 mmHg 97%
04:00 -1°C° 0.6 mm 4 mps 746 mmHg 97%
05:00 -1°C° 0.3 mm 5 mps 746 mmHg 98%
06:00 0°C° 0.3 mm 5 mps 746 mmHg 98%
07:00 0°C° 0.3 mm 5 mps 746 mmHg 98%
08:00 0°C° 0 mm 5 mps 746 mmHg 98%
09:00 0°C° 0 mm 5 mps 746 mmHg 98%
10:00 0°C° 0 mm 5 mps 746 mmHg 98%
11:00 0°C° 0 mm 5 mps 746 mmHg 98%
12:00 0°C° 0 mm 5 mps 746 mmHg 97%
13:00 0°C° 0 mm 5 mps 746 mmHg 97%
14:00 0°C° 0 mm 5 mps 746 mmHg 94%
15:00 0°C° 0 mm 5 mps 746 mmHg 91%
16:00 0°C° 0 mm 5 mps 746 mmHg 88%
17:00 0°C° 0 mm 5 mps 746 mmHg 87%
18:00 0°C° 0 mm 5 mps 746 mmHg 86%
19:00 0°C° 0 mm 5 mps 746 mmHg 85%
20:00 0°C° 0 mm 4 mps 746 mmHg 84%
21:00 0°C° 0 mm 4 mps 746 mmHg 83%
22:00 0°C° 0 mm 4 mps 746 mmHg 82%
23:00 -1°C° 0 mm 4 mps 746 mmHg 82%

21 January, Thursday

Time Temperature Precipitation Wind Pressure Humidity
00:00 -1°C° 0 mm 4 mps 746 mmHg 82%
01:00 -1°C° 0 mm 4 mps 746 mmHg 82%
02:00 -1°C° 0 mm 4 mps 746 mmHg 82%
03:00 -1°C° 0 mm 4 mps 746 mmHg 83%
04:00 -1°C° 0 mm 4 mps 746 mmHg 83%
05:00 -1°C° 0 mm 4 mps 746 mmHg 84%
06:00 -1°C° 0 mm 4 mps 746 mmHg 85%
07:00 -1°C° 0 mm 4 mps 746 mmHg 86%
08:00 -1°C° 0 mm 4 mps 746 mmHg 88%
09:00 0°C° 0 mm 4 mps 746 mmHg 90%
10:00 0°C° 0 mm 4 mps 746 mmHg 91%
11:00 0°C° 0 mm 4 mps 746 mmHg 92%
12:00 +2°C° 0 mm 3 mps 746 mmHg 94%
13:00 +2°C° 0 mm 3 mps 746 mmHg 95%
14:00 +2°C° 0 mm 3 mps 745 mmHg 93%
15:00 +1°C° 0 mm 3 mps 745 mmHg 91%
16:00 +1°C° 0 mm 3 mps 744 mmHg 89%
17:00 +1°C° 0 mm 3 mps 744 mmHg 89%
18:00 +1°C° 0 mm 3 mps 744 mmHg 89%
19:00 +1°C° 0 mm 3 mps 744 mmHg 89%
20:00 +1°C° 0 mm 3 mps 743 mmHg 89%
21:00 0°C° 0 mm 3 mps 743 mmHg 89%
22:00 0°C° 0 mm 3 mps 743 mmHg 90%
23:00 -1°C° 0 mm 4 mps 743 mmHg 88%

22 January, Friday

Time Temperature Precipitation Wind Pressure Humidity
00:00 -1°C° 0 mm 4 mps 743 mmHg 87%
01:00 -1°C° 0 mm 4 mps 742 mmHg 86%
02:00 -1°C° 0 mm 4 mps 742 mmHg 87%
03:00 0°C° 0 mm 4 mps 742 mmHg 88%
04:00 +1°C° 0 mm 3 mps 742 mmHg 89%
05:00 +1°C° 0 mm 3 mps 741 mmHg 89%
06:00 +1°C° 0 mm 3 mps 741 mmHg 89%
07:00 +1°C° 0 mm 3 mps 741 mmHg 89%
08:00 +1°C° 0 mm 3 mps 741 mmHg 90%
09:00 +1°C° 0 mm 3 mps 740 mmHg 90%
10:00 +1°C° 0 mm 4 mps 740 mmHg 91%
11:00 +1°C° 0 mm 4 mps 739 mmHg 91%
12:00 +1°C° 0 mm 4 mps 739 mmHg 92%
13:00 +3°C° 0 mm 4 mps 739 mmHg 92%
14:00 +1°C° 0 mm 4 mps 739 mmHg 92%
15:00 +1°C° 0 mm 4 mps 739 mmHg 93%
16:00 +1°C° 0 mm 4 mps 739 mmHg 93%
17:00 0°C° 0 mm 4 mps 739 mmHg 92%
18:00 0°C° 0 mm 4 mps 740 mmHg 90%
19:00 0°C° 0 mm 4 mps 741 mmHg 89%
20:00 +1°C° 0 mm 3 mps 741 mmHg 90%
21:00 +1°C° 0 mm 3 mps 741 mmHg 91%
22:00 0°C° 0 mm 3 mps 742 mmHg 93%
23:00 0°C° 0.1 mm 3 mps 742 mmHg 93%

23 January, Saturday

Time Temperature Precipitation Wind Pressure Humidity
00:00 +1°C° 0.1 mm 2 mps 742 mmHg 93%
01:00 +1°C° 0.1 mm 2 mps 743 mmHg 93%
02:00 +1°C° 0.2 mm 2 mps 743 mmHg 93%
03:00 +1°C° 0.2 mm 2 mps 743 mmHg 93%
04:00 +1°C° 0.2 mm 2 mps 743 mmHg 93%
05:00 +1°C° 0 mm 2 mps 743 mmHg 92%
06:00 +1°C° 0 mm 2 mps 743 mmHg 92%
07:00 +1°C° 0 mm 2 mps 743 mmHg 91%
08:00 +1°C° 0 mm 2 mps 743 mmHg 90%
09:00 +1°C° 0 mm 2 mps 744 mmHg 90%
10:00 +1°C° 0 mm 2 mps 744 mmHg 89%
11:00 +2°C° 0 mm 2 mps 744 mmHg 89%
12:00 +2°C° 0 mm 2 mps 744 mmHg 89%
13:00 +2°C° 0 mm 2 mps 744 mmHg 89%
14:00 +2°C° 0 mm 2 mps 744 mmHg 90%
15:00 +1°C° 0 mm 2 mps 744 mmHg 91%
16:00 +1°C° 0 mm 2 mps 744 mmHg 92%
17:00 +1°C° 0 mm 2 mps 744 mmHg 92%
18:00 -1°C° 0 mm 2 mps 743 mmHg 92%
19:00 -1°C° 0 mm 2 mps 743 mmHg 92%
20:00 -1°C° 0 mm 2 mps 743 mmHg 92%
21:00 -1°C° 0 mm 2 mps 743 mmHg 93%
22:00 -1°C° 0 mm 2 mps 743 mmHg 93%
23:00 -1°C° 0 mm 3 mps 743 mmHg 93%
Show more